Time,TemperatureF,DewpointF,PressureIn,WindDirection,WindDirectionDegrees,WindSpeedMPH,WindSpeedGustMPH,Humidity,HourlyPrecipIn,Conditions,Clouds,dailyrainin,SoftwareType,DateUTC
2013-01-20 00:05:00,18.0,5.3,29.90,NW,315,8.0,20.0,57,0.00,,,-99.99,WeatherLink 5.7,2013-01-20 06:05:00,
2013-01-20 00:19:00,17.5,4.8,29.91,NW,315,7.0,20.0,57,0.00,,,-99.99,WeatherLink 5.7,2013-01-20 06:19:00,
2013-01-20 00:34:00,16.9,3.9,29.94,NW,315,9.0,20.0,56,0.00,,,-99.99,WeatherLink 5.7,2013-01-20 06:34:00,
2013-01-20 00:49:00,16.4,3.8,29.95,NW,315,6.0,14.0,57,0.00,,,-99.99,WeatherLink 5.7,2013-01-20 06:49:00,
2013-01-20 01:05:00,16.1,3.9,29.96,NW,315,5.0,17.0,58,0.00,,,-99.99,WeatherLink 5.7,2013-01-20 07:05:00,
2013-01-20 01:19:00,14.8,2.3,29.97,NW,315,8.0,27.0,57,0.00,,,-99.99,WeatherLink 5.7,2013-01-20 07:19:00,
2013-01-20 01:34:00,14.1,1.6,29.98,NW,315,8.0,20.0,57,0.00,,,-99.99,WeatherLink 5.7,2013-01-20 07:34:00,
2013-01-20 01:50:00,13.6,1.2,29.99,NW,315,9.0,22.0,57,0.00,,,-99.99,WeatherLink 5.7,2013-01-20 07:50:00,
2013-01-20 02:05:00,13.3,1.6,30.00,NW,315,7.0,21.0,59,0.00,,,-99.99,WeatherLink 5.7,2013-01-20 08:05:00,
2013-01-20 02:19:00,13.1,1.4,30.02,NW,315,6.0,21.0,59,0.00,,,-99.99,WeatherLink 5.7,2013-01-20 08:19:00,
2013-01-20 02:34:00,12.9,1.6,30.03,NW,315,7.0,17.0,60,0.00,,,-99.99,WeatherLink 5.7,2013-01-20 08:34:00,
2013-01-20 02:50:00,12.6,1.3,30.04,NW,315,6.0,15.0,60,0.00,,,-99.99,WeatherLink 5.7,2013-01-20 08:50:00,
2013-01-20 03:05:00,12.4,1.5,30.05,NW,315,7.0,21.0,61,0.00,,,-99.99,WeatherLink 5.7,2013-01-20 09:05:00,
2013-01-20 03:20:00,12.1,0.5,30.07,NW,315,7.0,17.0,59,0.00,,,-99.99,WeatherLink 5.7,2013-01-20 09:20:00,
2013-01-20 03:34:00,11.9,0.3,30.07,NW,315,7.0,17.0,59,0.00,,,-99.99,WeatherLink 5.7,2013-01-20 09:34:00,
2013-01-20 03:49:00,11.7,0.5,30.08,WNW,292,4.0,16.0,60,0.00,,,-99.99,WeatherLink 5.7,2013-01-20 09:49:00,
2013-01-20 04:04:00,11.2,-0.7,30.08,NW,315,5.0,14.0,58,0.00,,,-99.99,WeatherLink 5.7,2013-01-20 10:04:00,
2013-01-20 04:19:00,10.7,-1.2,30.09,NW,315,6.0,18.0,58,0.00,,,-99.99,WeatherLink 5.7,2013-01-20 10:19:00,
2013-01-20 04:35:00,10.5,-1.0,30.09,NW,315,5.0,17.0,59,0.00,,,-99.99,WeatherLink 5.7,2013-01-20 10:35:00,
2013-01-20 04:50:00,10.4,-0.4,30.10,NW,315,4.0,11.0,61,0.00,,,-99.99,WeatherLink 5.7,2013-01-20 10:50:00,
2013-01-20 05:04:00,10.2,-0.6,30.11,NW,315,4.0,14.0,61,0.00,,,-99.99,WeatherLink 5.7,2013-01-20 11:04:00,
2013-01-20 05:20:00,9.9,-0.9,30.12,NW,315,4.0,11.0,61,0.00,,,-99.99,WeatherLink 5.7,2013-01-20 11:20:00,
2013-01-20 05:35:00,9.5,-2.0,30.13,NNW,337,5.0,19.0,59,0.00,,,-99.99,WeatherLink 5.7,2013-01-20 11:35:00,
2013-01-20 05:50:00,9.3,-1.8,30.13,NNW,337,4.0,15.0,60,0.00,,,-99.99,WeatherLink 5.7,2013-01-20 11:50:00,
2013-01-20 06:05:00,9.2,-1.5,30.13,NW,315,5.0,13.0,61,0.00,,,-99.99,WeatherLink 5.7,2013-01-20 12:05:00,
2013-01-20 06:20:00,9.0,-1.7,30.15,NW,315,5.0,14.0,61,0.00,,,-99.99,WeatherLink 5.7,2013-01-20 12:20:00,
2013-01-20 06:35:00,8.8,-1.9,30.16,NNW,337,4.0,14.0,61,0.00,,,-99.99,WeatherLink 5.7,2013-01-20 12:35:00,
2013-01-20 06:49:00,8.8,-1.6,30.17,NW,315,4.0,13.0,62,0.00,,,-99.99,WeatherLink 5.7,2013-01-20 12:49:00,
2013-01-20 07:05:00,8.6,-2.1,30.17,NW,315,4.0,13.0,61,0.00,,,-99.99,WeatherLink 5.7,2013-01-20 13:05:00,
2013-01-20 07:20:00,8.4,-2.0,30.18,NW,315,3.0,13.0,62,0.00,,,-99.99,WeatherLink 5.7,2013-01-20 13:20:00,
2013-01-20 07:35:00,8.4,-1.6,30.19,NNW,337,3.0,10.0,63,0.00,,,-99.99,WeatherLink 5.7,2013-01-20 13:35:00,
2013-01-20 07:50:00,8.6,-1.8,30.19,NW,315,4.0,13.0,62,0.00,,,-99.99,WeatherLink 5.7,2013-01-20 13:50:00,
2013-01-20 08:05:00,8.6,-1.8,30.19,NW,315,4.0,12.0,62,0.00,,,-99.99,WeatherLink 5.7,2013-01-20 14:05:00,
2013-01-20 08:19:00,8.6,-1.8,30.21,NW,315,4.0,12.0,62,0.00,,,-99.99,WeatherLink 5.7,2013-01-20 14:19:00,
2013-01-20 08:34:00,9.2,-1.2,30.21,NNW,337,4.0,11.0,62,0.00,,,-99.99,WeatherLink 5.7,2013-01-20 14:34:00,
2013-01-20 08:50:00,9.5,-1.3,30.22,NW,315,5.0,14.0,61,0.00,,,-99.99,WeatherLink 5.7,2013-01-20 14:50:00,
2013-01-20 09:05:00,10.2,-0.6,30.22,NW,315,4.0,11.0,61,0.00,,,-99.99,WeatherLink 5.7,2013-01-20 15:05:00,
2013-01-20 09:20:00,10.7,-0.5,30.22,NW,315,3.0,10.0,60,0.00,,,-99.99,WeatherLink 5.7,2013-01-20 15:20:00,
2013-01-20 09:35:00,10.9,-0.3,30.23,NW,315,3.0,9.0,60,0.00,,,-99.99,WeatherLink 5.7,2013-01-20 15:35:00,
2013-01-20 09:49:00,10.7,-0.8,30.22,WNW,292,4.0,10.0,59,0.00,,,-99.99,WeatherLink 5.7,2013-01-20 15:49:00,
2013-01-20 10:04:00,11.6,0.0,30.23,NW,315,3.0,9.0,59,0.00,,,-99.99,WeatherLink 5.7,2013-01-20 16:04:00,
2013-01-20 10:19:00,11.9,-0.1,30.24,NW,315,3.0,11.0,58,0.00,,,-99.99,WeatherLink 5.7,2013-01-20 16:19:00,
2013-01-20 10:35:00,12.6,0.6,30.24,NW,315,4.0,11.0,58,0.00,,,-99.99,WeatherLink 5.7,2013-01-20 16:35:00,
2013-01-20 10:50:00,12.8,0.4,30.23,WNW,292,2.0,10.0,57,0.00,,,-99.99,WeatherLink 5.7,2013-01-20 16:50:00,
2013-01-20 11:05:00,13.1,1.4,30.23,NW,315,3.0,9.0,59,0.00,,,-99.99,WeatherLink 5.7,2013-01-20 17:05:00,
2013-01-20 11:20:00,13.1,0.3,30.23,WNW,292,5.0,13.0,56,0.00,,,-99.99,WeatherLink 5.7,2013-01-20 17:20:00,
2013-01-20 11:35:00,14.3,1.4,30.23,NW,315,3.0,9.0,56,0.00,,,-99.99,WeatherLink 5.7,2013-01-20 17:35:00,
2013-01-20 11:50:00,14.1,0.9,30.22,NW,315,4.0,11.0,55,0.00,,,-99.99,WeatherLink 5.7,2013-01-20 17:50:00,
2013-01-20 12:04:00,14.8,1.1,30.22,NW,315,4.0,11.0,54,0.00,,,-99.99,WeatherLink 5.7,2013-01-20 18:04:00,
2013-01-20 12:20:00,14.1,0.5,30.21,NW,315,4.0,12.0,54,0.00,,,-99.99,WeatherLink 5.7,2013-01-20 18:20:00,
2013-01-20 12:35:00,14.8,1.1,30.20,NNW,337,3.0,10.0,54,0.00,,,-99.99,WeatherLink 5.7,2013-01-20 18:35:00,
2013-01-20 12:50:00,15.4,0.9,30.20,WNW,292,4.0,10.0,52,0.00,,,-99.99,WeatherLink 5.7,2013-01-20 18:50:00,
2013-01-20 13:05:00,15.7,1.6,30.18,NNW,337,4.0,10.0,53,0.00,,,-99.99,WeatherLink 5.7,2013-01-20 19:05:00,
2013-01-20 13:19:00,15.9,0.9,30.19,NNW,337,3.0,12.0,51,0.00,,,-99.99,WeatherLink 5.7,2013-01-20 19:19:00,
2013-01-20 13:35:00,15.7,0.7,30.19,NNW,337,3.0,7.0,51,0.00,,,-99.99,WeatherLink 5.7,2013-01-20 19:35:00,
2013-01-20 13:50:00,15.4,0.5,30.19,NW,315,4.0,12.0,51,0.00,,,-99.99,WeatherLink 5.7,2013-01-20 19:50:00,
2013-01-20 14:05:00,15.6,0.7,30.19,NW,315,4.0,11.0,51,0.00,,,-99.99,WeatherLink 5.7,2013-01-20 20:05:00,
2013-01-20 14:20:00,15.4,0.9,30.19,NW,315,4.0,13.0,52,0.00,,,-99.99,WeatherLink 5.7,2013-01-20 20:20:00,
2013-01-20 14:35:00,15.4,0.0,30.20,WNW,292,4.0,12.0,50,0.00,,,-99.99,WeatherLink 5.7,2013-01-20 20:35:00,
2013-01-20 14:50:00,16.2,1.2,30.19,WNW,292,4.0,11.0,51,0.00,,,-99.99,WeatherLink 5.7,2013-01-20 20:50:00,
2013-01-20 15:05:00,16.9,1.0,30.19,NW,315,4.0,12.0,49,0.00,,,-99.99,WeatherLink 5.7,2013-01-20 21:05:00,
2013-01-20 15:20:00,17.2,-0.1,30.19,WNW,292,3.0,10.0,46,0.00,,,-99.99,WeatherLink 5.7,2013-01-20 21:20:00,
2013-01-20 15:35:00,16.9,-0.3,30.18,WNW,292,3.0,11.0,46,0.00,,,-99.99,WeatherLink 5.7,2013-01-20 21:35:00,
2013-01-20 15:50:00,16.2,-1.5,30.19,NW,315,4.0,11.0,45,0.00,,,-99.99,WeatherLink 5.7,2013-01-20 21:50:00,
2013-01-20 16:04:00,16.2,-1.5,30.19,WNW,292,3.0,11.0,45,0.00,,,-99.99,WeatherLink 5.7,2013-01-20 22:04:00,
2013-01-20 16:20:00,15.9,-0.4,30.18,WNW,292,3.0,10.0,48,0.00,,,-99.99,WeatherLink 5.7,2013-01-20 22:20:00,
2013-01-20 16:35:00,15.2,-0.6,30.18,West,270,3.0,13.0,49,0.00,,,-99.99,WeatherLink 5.7,2013-01-20 22:35:00,
2013-01-20 16:50:00,15.1,-1.5,30.19,WNW,292,4.0,12.0,47,0.00,,,-99.99,WeatherLink 5.7,2013-01-20 22:50:00,
2013-01-20 17:04:00,14.9,-1.3,30.19,West,270,2.0,13.0,48,0.00,,,-99.99,WeatherLink 5.7,2013-01-20 23:04:00,
2013-01-20 17:19:00,14.8,-1.4,30.19,West,270,3.0,14.0,48,0.00,,,-99.99,WeatherLink 5.7,2013-01-20 23:19:00,
2013-01-20 17:35:00,14.6,-1.1,30.18,WNW,292,2.0,11.0,49,0.00,,,-99.99,WeatherLink 5.7,2013-01-20 23:35:00,
2013-01-20 17:50:00,14.3,-1.4,30.19,WNW,292,2.0,9.0,49,0.00,,,-99.99,WeatherLink 5.7,2013-01-20 23:50:00,
2013-01-20 18:05:00,14.1,-1.2,30.19,WNW,292,1.0,9.0,50,0.00,,,-99.99,WeatherLink 5.7,2013-01-21 00:05:00,
2013-01-20 18:19:00,13.8,-1.0,30.19,West,270,1.0,6.0,51,0.00,,,-99.99,WeatherLink 5.7,2013-01-21 00:19:00,
2013-01-20 18:34:00,13.5,-0.9,30.19,West,270,1.0,5.0,52,0.00,,,-99.99,WeatherLink 5.7,2013-01-21 00:34:00,
2013-01-20 18:50:00,12.9,0.1,30.19,WSW,247,1.0,5.0,56,0.00,,,-99.99,WeatherLink 5.7,2013-01-21 00:50:00,
2013-01-20 19:05:00,12.6,0.2,30.19,WSW,247,1.0,5.0,57,0.00,,,-99.99,WeatherLink 5.7,2013-01-21 01:05:00,
2013-01-20 19:20:00,12.3,0.3,30.19,West,270,1.0,4.0,58,0.00,,,-99.99,WeatherLink 5.7,2013-01-21 01:20:00,
2013-01-20 19:34:00,12.3,1.0,30.19,West,270,2.0,7.0,60,0.00,,,-99.99,WeatherLink 5.7,2013-01-21 01:34:00,
2013-01-20 19:50:00,12.1,1.2,30.18,West,270,1.0,5.0,61,0.00,,,-99.99,WeatherLink 5.7,2013-01-21 01:50:00,
2013-01-20 20:05:00,12.1,1.2,30.18,West,270,1.0,7.0,61,0.00,,,-99.99,WeatherLink 5.7,2013-01-21 02:05:00,
2013-01-20 20:20:00,11.9,1.4,30.17,West,270,1.0,5.0,62,0.00,,,-99.99,WeatherLink 5.7,2013-01-21 02:20:00,
2013-01-20 20:35:00,11.7,1.2,30.16,West,270,1.0,5.0,62,0.00,,,-99.99,WeatherLink 5.7,2013-01-21 02:35:00,
2013-01-20 20:50:00,11.6,1.1,30.17,WSW,247,2.0,7.0,62,0.00,,,-99.99,WeatherLink 5.7,2013-01-21 02:50:00,
2013-01-20 21:05:00,11.6,1.1,30.16,WSW,247,2.0,11.0,62,0.00,,,-99.99,WeatherLink 5.7,2013-01-21 03:05:00,
2013-01-20 21:20:00,11.4,1.2,30.16,West,270,3.0,9.0,63,0.00,,,-99.99,WeatherLink 5.7,2013-01-21 03:20:00,
2013-01-20 21:35:00,11.2,1.0,30.16,West,270,2.0,7.0,63,0.00,,,-99.99,WeatherLink 5.7,2013-01-21 03:35:00,
2013-01-20 21:50:00,11.6,1.8,30.16,WSW,247,2.0,9.0,64,0.00,,,-99.99,WeatherLink 5.7,2013-01-21 03:50:00,
2013-01-20 22:05:00,11.7,1.9,30.16,West,270,3.0,11.0,64,0.00,,,-99.99,WeatherLink 5.7,2013-01-21 04:05:00,
2013-01-20 22:20:00,11.9,2.0,30.15,West,270,2.0,10.0,64,0.00,,,-99.99,WeatherLink 5.7,2013-01-21 04:20:00,
2013-01-20 22:35:00,11.9,3.4,30.14,West,270,3.0,12.0,68,0.00,,,-99.99,WeatherLink 5.7,2013-01-21 04:35:00,
2013-01-20 22:50:00,11.7,1.2,30.14,West,270,4.0,13.0,62,0.00,,,-99.99,WeatherLink 5.7,2013-01-21 04:50:00,
2013-01-20 23:05:00,11.4,0.5,30.14,West,270,3.0,13.0,61,0.00,,,-99.99,WeatherLink 5.7,2013-01-21 05:05:00,
2013-01-20 23:19:00,11.1,0.6,30.14,West,270,3.0,13.0,62,0.00,,,-99.99,WeatherLink 5.7,2013-01-21 05:19:00,
2013-01-20 23:34:00,10.7,0.2,30.14,West,270,2.0,10.0,62,0.00,,,-99.99,WeatherLink 5.7,2013-01-21 05:34:00,
2013-01-20 23:50:00,10.4,0.3,30.13,West,270,3.0,14.0,63,0.00,,,-99.99,WeatherLink 5.7,2013-01-21 05:50:00,